Overview Statistics Trail Chart Weather Telemetry Raw packets
 

This is the latest recevied weather packets stored in our database for station/object KD4EG. If no packets are shown the sender has not sent any weather packets the latest 10 day(s).

<< 92 93 94 95 96 97 98 >>
Time Temp. Humidity Pressure Rain* Wind** Luminosity Snow
1787934432 28.89° C 72% 1020.4 hPa 0 mm - 625 W/m² -
1787934127 28.89° C 70% 1020.8 hPa 0 mm - 642 W/m² -
1787933826 28.33° C 72% 1020.6 hPa 0 mm - 630 W/m² -
1787933521 27.78° C 72% 1020.7 hPa 0 mm - 627 W/m² -
1787933216 27.78° C 73% 1020.7 hPa 0 mm - 632 W/m² -
1787932910 27.78° C 72% 1020.6 hPa 0 mm - 633 W/m² -
1787932610 28.33° C 74% 1020.7 hPa 0 mm - 664 W/m² -
1787932309 27.78° C 74% 1020.7 hPa 0 mm - 675 W/m² -
1787932003 27.22° C 73% 1020.8 hPa 0 mm - 699 W/m² -
1787931703 27.22° C 74% 1020.7 hPa 0 mm - 697 W/m² -
1787931397 27.22° C 74% 1020.8 hPa 0 mm - 684 W/m² -
1787931093 26.67° C 76% 1020.6 hPa 0 mm - 675 W/m² -
1787930791 26.67° C 75% 1020.8 hPa 0 mm - 704 W/m² -
1787930486 26.11° C 77% 1020.8 hPa 0 mm - 679 W/m² -
1787930181 26.11° C 76% 1020.8 hPa 0 mm - 675 W/m² -
1787929880 26.11° C 77% 1020.9 hPa 0 mm - 721 W/m² -
1787929575 26.11° C 77% 1020.8 hPa 0 mm - 655 W/m² -
1787929274 25.56° C 77% 1020.8 hPa 0 mm - 608 W/m² -
1787928973 25.56° C 78% 1020.9 hPa 0 mm - 653 W/m² -
1787928668 25° C 80% 1020.8 hPa 0 mm - 645 W/m² -
1787928366 25° C 80% 1020.9 hPa 0 mm - 602 W/m² -
1787928064 24.44° C 81% 1020.8 hPa 0 mm - 569 W/m² -
1787927764 24.44° C 82% 1020.7 hPa 0 mm - 546 W/m² -
1787927459 23.89° C 82% 1021 hPa 0 mm - 520 W/m² -
1787927155 24.44° C 82% 1020.9 hPa 0 mm - 510 W/m² -

* Rain latest hour (hover to see other rain measurements)
** Current wind speed in m/s (hover to see current wind gust speed)